| time (UTC) | temp F | wind direction | speed MPH | gust MPH | rain 1hr in | rain 24hr in | rain mn in | humidity % | barometer mb |
| 20260503025046 | 63 | 46 | 2.0 | 4.0 | 0.00 | 0.00 | 0.00 | 92 | 1014.0 |
| 20260503024021 | 63 | 53 | 1.0 | 4.0 | 0.00 | 0.00 | 0.00 | 92 | 1014.2 |
| 20260503023017 | 63 | 52 | 1.0 | 3.0 | 0.00 | 0.00 | 0.00 | 92 | 1014.2 |
| 20260503022052 | 63 | 47 | 0.0 | 2.0 | 0.00 | 0.00 | 0.00 | 93 | 1014.3 |
| 20260503021028 | 63 | 57 | 1.0 | 4.0 | 0.00 | 0.00 | 0.00 | 93 | 1014.3 |
| 20260503020023 | 63 | 66 | 0.0 | 1.0 | 0.00 | 0.00 | 0.00 | 93 | 1014.3 |
| 20260503015018 | 63 | 89 | 2.0 | 4.0 | 0.00 | 0.00 | 0.00 | 92 | 1014.3 |
| 20260503014053 | 63 | 90 | 2.0 | 3.0 | 0.00 | 0.00 | 0.00 | 92 | 1014.5 |
| 20260503013029 | 63 | 70 | 1.0 | 2.0 | 0.00 | 0.00 | 0.00 | 91 | 1014.6 |
| 20260503012024 | 63 | 90 | 3.0 | 7.0 | 0.00 | 0.00 | 0.00 | 91 | 1014.7 |
| 20260503011019 | 63 | 47 | 1.0 | 4.0 | 0.00 | 0.00 | 0.00 | 91 | 1014.9 |
| 20260503010055 | 63 | 50 | 1.0 | 3.0 | 0.00 | 0.00 | 0.00 | 92 | 1014.9 |
| 20260503005030 | 63 | 59 | 1.0 | 2.0 | 0.00 | 0.00 | 0.00 | 92 | 1015.1 |
| 20260503004025 | 63 | 65 | 1.0 | 3.0 | 0.00 | 0.00 | 0.00 | 92 | 1015.0 |
| 20260503003020 | 63 | 62 | 1.0 | 4.0 | 0.00 | 0.00 | 0.00 | 92 | 1015.2 |
| 20260503002016 | 63 | 65 | 1.0 | 3.0 | 0.00 | 0.00 | 0.00 | 91 | 1015.4 |
| 20260503001032 | 63 | 85 | 2.0 | 4.0 | 0.00 | 0.00 | 0.00 | 91 | 1015.4 |
| 20260503000027 | 63 | 74 | 1.0 | 6.0 | 0.00 | 0.00 | 0.00 | 90 | 1015.6 |
| 20260502235042 | 64 | 70 | 1.0 | 4.0 | 0.00 | 0.00 | 0.00 | 90 | 1015.9 |
| 20260502234017 | 64 | 44 | 1.0 | 4.0 | 0.00 | 0.00 | 0.00 | 90 | 1015.9 |
| 20260502233033 | 64 | 34 | 1.0 | 2.0 | 0.00 | 0.00 | 0.00 | 90 | 1016.0 |
| 20260502232028 | 64 | 50 | 2.0 | 4.0 | 0.00 | 0.00 | 0.00 | 90 | 1015.8 |
| 20260502231023 | 64 | 57 | 0.0 | 2.0 | 0.00 | 0.00 | 0.00 | 90 | 1016.0 |
| 20260502230019 | 64 | 66 | 1.0 | 4.0 | 0.00 | 0.00 | 0.00 | 90 | 1015.9 |
| 20260502225034 | 64 | 86 | 1.0 | 3.0 | 0.00 | 0.00 | 0.00 | 90 | 1016.2 |
| 20260502224030 | 64 | 86 | 2.0 | 6.0 | 0.00 | 0.00 | 0.00 | 90 | 1016.1 |
| 20260502223025 | 64 | 81 | 1.0 | 4.0 | 0.00 | 0.00 | 0.00 | 90 | 1016.2 |
| 20260502222020 | 64 | 80 | 1.0 | 3.0 | 0.00 | 0.00 | 0.00 | 89 | 1016.2 |
| 20260502221016 | 64 | 71 | 1.0 | 2.0 | 0.00 | 0.00 | 0.00 | 89 | 1016.1 |
| 20260502220031 | 64 | 70 | 0.0 | 2.0 | 0.00 | 0.00 | 0.00 | 89 | 1016.1 |
| 20260502215027 | 64 | 80 | 0.0 | 2.0 | 0.00 | 0.00 | 0.00 | 88 | 1016.2 |
| 20260502214022 | 64 | 78 | 1.0 | 3.0 | 0.00 | 0.00 | 0.00 | 89 | 1016.1 |
| 20260502213017 | 64 | 79 | 1.0 | 2.0 | 0.00 | 0.00 | 0.00 | 89 | 1016.4 |
| 20260502212032 | 64 | 78 | 1.0 | 2.0 | 0.00 | 0.00 | 0.00 | 89 | 1016.2 |
| 20260502211027 | 64 | 84 | 2.0 | 4.0 | 0.00 | 0.00 | 0.00 | 88 | 1016.1 |
| 20260502210023 | 64 | 85 | 1.0 | 3.0 | 0.00 | 0.00 | 0.00 | 88 | 1016.2 |
| 20260502205018 | 64 | 68 | 1.0 | 2.0 | 0.00 | 0.00 | 0.00 | 88 | 1016.2 |
| 20260502204033 | 64 | 74 | 0.0 | 3.0 | 0.00 | 0.00 | 0.00 | 88 | 1016.2 |
| 20260502203029 | 64 | 90 | 2.0 | 4.0 | 0.00 | 0.00 | 0.00 | 88 | 1016.3 |
| 20260502202044 | 64 | 85 | 2.0 | 4.0 | 0.00 | 0.00 | 0.00 | 87 | 1015.9 |
| 20260502201019 | 64 | 84 | 3.0 | 6.0 | 0.00 | 0.00 | 0.00 | 87 | 1016.0 |
| 20260502200035 | 64 | 88 | 3.0 | 6.0 | 0.00 | 0.00 | 0.00 | 87 | 1016.0 |
| 20260502195050 | 64 | 84 | 4.0 | 8.0 | 0.00 | 0.00 | 0.00 | 88 | 1015.7 |
| 20260502194025 | 64 | 93 | 4.0 | 7.0 | 0.00 | 0.00 | 0.00 | 88 | 1015.9 |
| 20260502193021 | 64 | 85 | 2.0 | 6.0 | 0.00 | 0.00 | 0.00 | 87 | 1015.8 |
| 20260502192016 | 64 | 99 | 6.0 | 9.0 | 0.00 | 0.00 | 0.00 | 87 | 1015.7 |
| 20260502191031 | 65 | 96 | 5.0 | 10.0 | 0.00 | 0.00 | 0.00 | 87 | 1015.6 |
| 20260502190026 | 64 | 102 | 6.0 | 11.0 | 0.00 | 0.00 | 0.00 | 87 | 1015.5 |
| 20260502185022 | 65 | 95 | 5.0 | 11.0 | 0.00 | 0.00 | 0.00 | 87 | 1015.3 |
| 20260502184017 | 65 | 102 | 7.0 | 13.0 | 0.00 | 0.00 | 0.00 | 86 | 1015.7 |
| 20260502183032 | 65 | 100 | 4.0 | 10.0 | 0.00 | 0.00 | 0.00 | 86 | 1015.9 |
| 20260502182027 | 65 | 85 | 5.0 | 10.0 | 0.00 | 0.00 | 0.00 | 86 | 1016.0 |
| 20260502181023 | 65 | 90 | 3.0 | 7.0 | 0.00 | 0.00 | 0.00 | 86 | 1016.1 |
| 20260502164021 | 66 | 113 | 7.0 | 13.0 | 0.00 | 0.00 | 0.00 | 82 | 1016.5 |
| 20260502163016 | 66 | 126 | 8.0 | 13.0 | 0.00 | 0.00 | 0.00 | 82 | 1016.5 |
| 20260502162031 | 66 | 107 | 7.0 | 15.0 | 0.00 | 0.00 | 0.00 | 82 | 1016.5 |
| 20260502161026 | 67 | 119 | 10.0 | 16.0 | 0.00 | 0.00 | 0.00 | 82 | 1016.4 |
| 20260502152043 | 68 | 123 | 5.0 | 11.0 | 0.00 | 0.00 | 0.00 | 78 | 1016.5 |
| 20260502151018 | 68 | 127 | 8.0 | 13.0 | 0.00 | 0.00 | 0.00 | 78 | 1016.8 |
| 20260502123023 | 67 | 137 | 11.0 | 18.0 | 0.00 | 0.00 | 0.00 | 83 | 1018.2 |
| 20260502122019 | 67 | 129 | 8.0 | 13.0 | 0.00 | 0.00 | 0.00 | 83 | 1018.6 |
| 20260502121034 | 67 | 124 | 7.0 | 13.0 | 0.00 | 0.00 | 0.00 | 81 | 1018.8 |
| 20260502115045 | 68 | 101 | 5.0 | 10.0 | 0.00 | 0.00 | 0.00 | 81 | 1018.6 |
| 20260502114019 | 68 | 117 | 7.0 | 13.0 | 0.00 | 0.00 | 0.00 | 80 | 1018.8 |
| 20260502113035 | 68 | 122 | 7.0 | 14.0 | 0.00 | 0.00 | 0.00 | 79 | 1018.9 |
| 20260502112031 | 68 | 140 | 9.0 | 14.0 | 0.00 | 0.00 | 0.00 | 79 | 1018.8 |
| 20260502110532 | 68 | 138 | 8.0 | 14.0 | 0.00 | 0.00 | 0.00 | 80 | 1019.0 |
| 20260502105528 | 68 | 113 | 9.0 | 14.0 | 0.00 | 0.00 | 0.00 | 80 | 1019.1 |
| 20260502104522 | 68 | 98 | 7.0 | 15.0 | 0.00 | 0.00 | 0.00 | 79 | 1019.1 |
| 20260502103518 | 69 | 123 | 7.0 | 15.0 | 0.00 | 0.00 | 0.00 | 76 | 1019.2 |
| 20260502102553 | 69 | 106 | 4.0 | 10.0 | 0.00 | 0.00 | 0.00 | 75 | 1019.2 |
| 20260502101529 | 69 | 119 | 3.0 | 8.0 | 0.00 | 0.00 | 0.00 | 75 | 1019.3 |
| 20260502100544 | 69 | 115 | 5.0 | 10.0 | 0.00 | 0.00 | 0.00 | 75 | 1019.2 |
| 20260502091522 | 68 | 101 | 4.0 | 8.0 | 0.00 | 0.00 | 0.00 | 77 | 1019.4 |
| 20260502090517 | 67 | 83 | 2.0 | 6.0 | 0.00 | 0.00 | 0.00 | 80 | 1019.6 |
| 20260502071526 | 65 | 53 | 2.0 | 6.0 | 0.00 | 0.00 | 0.00 | 83 | 1019.6 |
| 20260502070521 | 65 | 65 | 2.0 | 4.0 | 0.00 | 0.00 | 0.00 | 84 | 1019.6 |
| 20260502065536 | 65 | 54 | 2.0 | 6.0 | 0.00 | 0.00 | 0.00 | 85 | 1019.4 |
| 20260502064532 | 64 | 50 | 2.0 | 4.0 | 0.00 | 0.00 | 0.00 | 87 | 1019.5 |
| 20260502063527 | 64 | 40 | 0.0 | 2.0 | 0.00 | 0.00 | 0.00 | 88 | 1019.7 |
| 20260502062522 | 64 | 0.0 | 0.0 | 0.00 | 0.00 | 0.00 | 89 | 1019.9 | |
| 20260502060533 | 63 | 44 | 0.0 | 1.0 | 0.00 | 0.00 | 0.00 | 91 | 1019.6 |
| 20260502055529 | 63 | 0.0 | 0.0 | 0.00 | 0.00 | 0.00 | 91 | 1019.5 | |
| 20260502054524 | 63 | 0.0 | 0.0 | 0.00 | 0.00 | 0.00 | 92 | 1019.5 | |
| 20260502053519 | 63 | 0.0 | 0.0 | 0.00 | 0.00 | 0.00 | 92 | 1019.3 | |
| 20260502052515 | 63 | 0.0 | 0.0 | 0.00 | 0.00 | 0.00 | 92 | 1019.4 | |
| 20260502051531 | 63 | 0.0 | 0.0 | 0.00 | 0.00 | 0.00 | 92 | 1019.2 | |
| 20260502050526 | 63 | 0.0 | 0.0 | 0.00 | 0.01 | 0.00 | 92 | 1019.5 | |
| 20260502045522 | 63 | 0.0 | 0.0 | 0.00 | 0.01 | 0.00 | 92 | 1019.3 | |
| 20260502044517 | 63 | 19 | 0.0 | 1.0 | 0.00 | 0.02 | 0.00 | 92 | 1019.4 |
| 20260502043533 | 63 | 0.0 | 0.0 | 0.00 | 0.02 | 0.00 | 92 | 1019.3 | |
| 20260502042528 | 63 | 50 | 0.0 | 2.0 | 0.00 | 0.02 | 0.00 | 93 | 1019.4 |
| 20260502041524 | 63 | 66 | 0.0 | 1.0 | 0.00 | 0.02 | 0.00 | 93 | 1019.4 |
| 20260502040519 | 63 | 0.0 | 0.0 | 0.00 | 0.02 | 0.00 | 93 | 1019.5 | |
| 20260502035534 | 63 | 26 | 0.0 | 1.0 | 0.00 | 0.02 | 0.00 | 93 | 1019.6 |
| 20260502034530 | 63 | 22 | 0.0 | 1.0 | 0.00 | 0.02 | 0.00 | 93 | 1019.8 |
| 20260502033545 | 63 | 26 | 0.0 | 1.0 | 0.00 | 0.02 | 0.00 | 93 | 1019.8 |
| 20260502032521 | 63 | 36 | 0.0 | 1.0 | 0.00 | 0.02 | 0.00 | 93 | 1019.9 |
| 20260502031516 | 63 | 51 | 1.0 | 2.0 | 0.00 | 0.02 | 0.00 | 93 | 1019.7 |
| 20260502030532 | 63 | 48 | 0.0 | 1.0 | 0.00 | 0.02 | 0.00 | 93 | 1019.8 |
| 20260502025527 | 63 | 57 | 1.0 | 3.0 | 0.00 | 0.02 | 0.00 | 93 | 1019.6 |